Location: Pic du Midi - T1M
(42.9366°N, 0.1426°E)
Time: 13:28:02
(UTC+01:00)

SEEDS - Visible Passes

Search period start: 20 September 2021 00:00
Search period end: 30 September 2021 00:00
Orbit: 583 x 603 km, 97.6° (Epoch: 20 September)

Date Brightness Start Highest point End Pass type
(mag) Time Alt. Az. Time Alt. Az. Time Alt. Az.
20 Sep ? 05:23:03 10° NNE 05:27:10 53° E 05:31:17 10° S visible
21 Sep ? 05:31:59 10° NNE 05:36:10 68° E 05:40:21 10° S visible
22 Sep ? 05:40:56 10° NNE 05:45:10 86° ESE 05:49:23 10° SSW visible
23 Sep ? 05:49:55 10° N 05:54:08 76° WNW 05:58:20 10° SSW visible
24 Sep ? 04:25:26 10° ENE 04:27:08 12° E 04:28:50 10° ESE visible
24 Sep ? 05:58:57 10° N 06:03:05 59° WNW 06:07:14 10° SSW visible
25 Sep ? 04:33:42 10° NE 04:36:12 15° E 04:38:42 10° SE visible
25 Sep ? 06:08:00 10° N 06:12:03 47° WNW 06:16:05 10° SW visible
26 Sep ? 04:42:13 10° NE 04:45:16 19° E 04:48:17 10° SE visible
26 Sep ? 06:17:05 10° N 06:20:59 37° WNW 06:24:52 10° SW visible
27 Sep ? 04:50:53 10° NE 04:54:19 24° E 04:57:44 10° SSE visible
28 Sep ? 04:59:37 10° NE 05:03:21 29° E 05:07:02 10° SSE visible
29 Sep ? 05:08:26 10° NNE 05:12:22 37° E 05:16:16 10° SSE visible
